Location: Unspecified
(17.6330°N, 0.0000°E)
Time: 00:04:16
(UTC+00:00)

Vanguard 1 - All Passes

Search period start: 19 June 2019 00:00
Search period end: 29 June 2019 00:00
Orbit: 654 x 3829 km, 34.2° (Epoch: 17 June)

Date Brightness Start Highest point End Pass type
(mag) Time Alt. Az. Time Alt. Az. Time Alt. Az.
19 Jun - 02:15:23 10° WSW 02:36:32 78° NNW 02:48:17 10° NE visible
19 Jun - 04:47:41 10° W 05:00:30 35° NNW 05:08:01 10° NE visible
19 Jun - 07:18:02 10° NW 07:24:07 22° N 07:28:25 10° NE daylight
19 Jun - 09:40:48 10° NW 09:45:59 56° NNE 09:50:18 10° ESE daylight
19 Jun - 12:03:18 10° WSW 12:05:58 15° SSW 12:08:54 10° S daylight
19 Jun - 21:48:25 10° S 22:05:12 25° SE 22:20:24 10° E visible
20 Jun - 00:09:34 10° SW 00:32:33 62° SE 00:48:00 10° ENE visible
20 Jun - 02:37:46 10° WSW 02:58:01 65° NNW 03:09:17 10° NE visible
20 Jun - 05:10:51 10° WNW 05:22:12 30° NNW 05:29:07 10° NE daylight
20 Jun - 07:39:39 10° NW 07:45:48 25° N 07:50:08 10° ENE daylight
20 Jun - 10:01:54 10° WNW 10:07:01 84° SSW 10:11:27 10° SE daylight
20 Jun - 22:07:56 10° SSW 22:27:13 33° SE 22:44:01 10° E visible
21 Jun - 00:30:46 10° SW 00:54:13 76° SE 01:09:25 10° ENE visible
21 Jun - 03:00:32 10° W 03:19:35 54° NNW 03:30:16 10° NE visible
21 Jun - 05:33:50 10° WNW 05:44:01 28° N 05:50:22 10° NE daylight
21 Jun - 08:01:00 10° NW 08:07:23 31° NNE 08:11:48 10° ENE daylight
21 Jun - 10:23:16 10° WNW 10:27:57 44° SW 10:32:13 10° SE daylight
21 Jun - 20:14:20 10° SSE 20:20:59 12° SE 20:27:47 10° SE visible
21 Jun - 22:27:58 10° SSW 22:49:04 42° SE 23:06:45 10° ENE visible
22 Jun - 00:52:20 10° SW 01:15:51 90° SSE 01:30:40 10° ENE visible
22 Jun - 03:23:37 10° W 03:41:14 45° NNW 03:51:17 10° NE visible
22 Jun - 05:56:30 10° WNW 06:05:53 27° N 06:11:48 10° NE daylight
22 Jun - 08:22:13 10° NW 08:28:48 43° NNE 08:33:19 10° E daylight
22 Jun - 10:45:02 10° W 10:48:49 24° SW 10:52:27 10° SSE daylight
22 Jun - 20:30:25 10° S 20:43:21 18° SE 20:56:36 10° ESE visible
22 Jun - 22:48:24 10° SSW 23:10:48 53° SE 23:28:54 10° ENE visible
23 Jun - 01:14:18 10° WSW 01:37:28 77° NNW 01:51:48 10° NE visible
23 Jun - 03:46:53 10° W 04:03:02 39° NNW 04:12:23 10° NE visible
23 Jun - 06:18:46 10° NW 06:27:43 28° N 06:33:21 10° ENE daylight
23 Jun - 08:43:26 10° NW 08:50:02 66° NNE 08:54:36 10° ESE daylight
23 Jun - 11:07:54 10° WSW 11:09:44 12° SW 11:11:33 10° SSW daylight
23 Jun - 20:49:01 10° S 21:05:21 26° SE 21:21:53 10° E visible
23 Jun - 23:09:11 10° SW 23:32:29 65° SE 23:50:40 10° ENE visible
24 Jun - 01:36:40 10° WSW 01:59:10 66° NNW 02:12:54 10° NE visible
24 Jun - 04:10:12 10° WNW 04:24:58 35° NNW 04:33:38 10° NE visible
24 Jun - 06:40:40 10° NW 06:49:30 32° N 06:54:58 10° ENE daylight
24 Jun - 09:04:45 10° WNW 09:11:05 75° SSW 09:15:35 10° SE daylight
24 Jun - 21:08:30 10° SSW 21:27:06 34° SE 21:45:38 10° E visible
24 Jun - 23:30:20 10° SW 23:54:11 78° SE 00:12:11 10° ENE visible
25 Jun - 01:59:24 10° W 02:20:58 56° NNW 02:34:01 10° NE visible
25 Jun - 04:33:21 10° WNW 04:46:58 33° N 04:55:01 10° NE visible
25 Jun - 07:02:18 10° NW 07:11:09 40° NNE 07:16:32 10° E daylight
25 Jun - 09:26:19 10° WNW 09:31:57 42° SW 09:36:11 10° SSE daylight
25 Jun - 19:16:38 10° SSE 19:21:48 11° SE 19:27:14 10° ESE visible
25 Jun - 21:28:29 10° SSW 21:48:44 44° SE 22:08:29 10° ENE visible
25 Jun - 23:51:50 10° SW 00:15:53 89° NNW 00:33:32 10° ENE visible
26 Jun - 02:22:28 10° W 02:42:53 49° NNW 02:55:12 10° NE visible
26 Jun - 04:56:12 10° WNW 05:08:59 33° N 05:16:32 10° ENE visible
26 Jun - 07:23:46 10° NW 07:32:38 53° NNE 07:37:55 10° E daylight
26 Jun - 09:48:19 10° W 09:52:41 23° SW 09:56:17 10° S daylight
26 Jun - 19:32:03 10° S 19:43:48 18° SE 19:56:53 10° ESE visible
26 Jun - 21:48:53 10° SSW 22:10:19 55° SE 22:30:45 10° ENE visible
27 Jun - 00:13:42 10° WSW 00:37:40 77° NNW 00:54:48 10° NE visible
27 Jun - 02:45:45 10° W 03:04:57 43° NNW 03:16:27 10° NE visible
27 Jun - 05:18:41 10° WNW 05:30:59 35° N 05:38:07 10° ENE daylight
27 Jun - 07:45:13 10° WNW 07:53:55 77° NNE 07:59:05 10° ESE daylight
27 Jun - 10:11:36 10° WSW 10:13:24 12° SW 10:15:05 10° SSW daylight
27 Jun - 19:50:32 10° S 20:05:28 26° SE 20:22:25 10° E visible
27 Jun - 22:09:37 10° SW 22:31:55 67° SE 22:52:38 10° ENE visible
28 Jun - 00:35:57 10° WSW 00:59:35 66° NNW 01:16:02 10° NE visible
28 Jun - 03:09:05 10° WNW 03:27:07 40° NNW 03:37:52 10° ENE visible
28 Jun - 05:40:50 10° NW 05:52:52 40° N 05:59:43 10° E daylight
28 Jun - 08:06:45 10° WNW 08:14:58 70° SW 08:19:58 10° SE daylight
28 Jun - 20:09:56 10° SSW 20:26:57 34° SE 20:46:21 10° E visible
28 Jun - 22:30:40 10° SW 22:53:35 80° SE 23:14:16 10° ENE visible
